Location: Munderkingen
(48.2395°N, 9.6433°E)
Time: 08:28:37
(UTC+02:00)

ISS - Pass Details

Date: 14 February 2018
Orbit: 402 x 406 km, 51.6° (Epoch: 21 June)

Event Time Altitude Azimuth Distance (km) Brightness Sun altitude
Rises 18:22:00 0° 283° (WNW) 2,319 1.4 -7.3°
Reaches altitude 10° 18:24:49 10° 257° (WSW) 1,455 0.8 -7.8°
Maximum altitude 18:26:34 14° 224° (SW) 1,245 -0.5 -8.1°
Drops below altitude 10° 18:28:19 10° 191° (SSW) 1,451 -0.7 -8.4°
Sets 18:31:07 0° 165° (SSE) 2,306 -0.1 -8.8°
